一网星座-0515星 (ONEWEB-0515 )

导读

ONEWEB-0515是英国OneWeb低轨卫星互联网星座的组网卫星,于2022年10月22日发射,归属OneWeb公司,该公司由英国政府联合印度电信企业控股。卫星质量约147千克,设计寿命7年,运行在约1200公里近地轨道,配备Ku频段有效载荷,单星可提供至少每秒8千兆位吞吐量,为全球提供高速低延迟宽带互联网接入服务,助力填补偏远地区网络覆盖空白,是OneWeb全球星座组网的重要组成部分。

Basic Information
目录编号:
54133
目录名称:
ONEWEB-0515
国际标识:
2022-138W
轨道中心:
EARTH
卫星名称:
一网星座-0515星
卫星全名:
一网星座-0515星 (ONEWEB-0515 )
卫星状态:
在轨 (已飞行1421 天)
发射日期:
2022-10-22 UTC
国别 :
英国 (GB)
星等 :
--
This satellite is enrolled in the Space Conjunction Data Service (SCDS) and the current flight risk assessment level is: No High Risk
Orbit Information
数据来源 国际轨道数据 AOE轨道数据
星历时间 2026-09-11T21:22:10+0800
18小时前
查看轨道信息
2026-09-09T22:00:00+0800
2天前
查看轨道信息
半长轴 7559.912km 7559.91km
偏心率 0.0001133 0.0000938
轨道倾角 87.914° 87.914°
近地点辐角 96.660° 67.692°
升交点赤经 257.205° 257.601°
平近点角 263.466° 273.215°
近地点 1180.918km 1181.063km
远地点 1182.632km 1182.483km
周期 109.027分钟 109.027分钟
每日圈数 13.207714 13.20772
Detailed Information
平衡模式:
三轴稳定
覆盖范围:
全球
运营商:
一网卫星公司
运营商所在国:
英国
制造商(研发单位):
一网卫星公司
制造商所在国:
英国
使用方式:
暂无
Satellite Introduction
OneWeb卫星网络由648颗重约125公斤的微型卫星组成,运行在1200公里的轨道上。 每颗卫星都能够提供至少每秒8千兆位的吞吐量,以使用其高吞吐量的Ku频段有效载荷为家庭和移动平台提供互联网接入。该卫星仍在工作。
2D Orbit Map
3D Orbit Map
Orbit Altitude Analysis Chart
Orbit Inclination Analysis Chart
Orbit Comprehensive Analysis Chart
View Comprehensive Chart
Conjunction Data List
Event ID Objects TCA Miss Dist (km) Collision Risk Probability Collision Risk Index (CRI) Action
CDM_260912-153504-646605-413325
2026-09-12T
15:35:03+0000
1.545 km
极远距离
5.998754E-6 低风险 0.51
CDM_260912-134604-646605-413325
2026-09-12T
13:46:03+0000
1.976 km
极远距离
2.909585E-6 低风险 0.44
Miss Distance Evolution Trend with All Objects
Collision Probability Evolution Trend with All Objects